Gadsden, AL

10:07 PM CDT on August 20, 2017 (GMT -0500)
Gadsden Municipal

Weather History for KGAD - October, 2011

Change the Weather History Date:

Sunday, October 16, 2011

  Actual Average Record
Temperature  
Mean Temperature 62 °F -  
Max Temperature 82 °F 71 °F 87 °F (1941)
Min Temperature 41 °F 47 °F 32 °F (1945)
Degree Days  
Heating Degree Days 4    
Growing Degree Days 12 (Base 50)    
Moisture  
Dew Point 46 °F    
Average Humidity 68    
Maximum Humidity 93    
Minimum Humidity 30    
Precipitation  
Precipitation 0.00 in - - ()
Sea Level Pressure  
Sea Level Pressure 30.11 in    
Wind  
Wind Speed 1 mph (SW)    
Max Wind Speed 10 mph    
Max Gust Speed -    
Visibility 10 miles    
Events      
Averages and records for this station are not official NWS values.
T = Trace of Precipitation, MM = Missing Value Source: NWS Daily Summary

Daily Weather History Graph

Daily Weather History Graph

Search for Another Location

Airport or City:

Trip Planner

Search our weather history database for the weather conditions in past years. The results will help you decide how hot, cold, wet, or windy it might be!

Date:

Astronomy

Oct. 16, 2011 Rise Set
Actual Time 6:49 AM CDT 6:09 PM CDT
Civil Twilight 6:24 AM CDT 6:34 PM CDT
Nautical Twilight 5:55 AM CDT 7:03 PM CDT
Astronomical Twilight 5:26 AM CDT 7:32 PM CDT
Moon 9:06 PM CDT (10/16) 10:55 AM CDT (10/16)
Length of Visible Light 12h 09m
Length of Day
11h 19m
Waning Gibbous, 82% of the Moon is Illuminated
Oct 16
Waning Gibbous
Oct 19
Last Quarter
Oct 26
New
Nov 2
First Quarter
Nov 10
Full

Hourly Weather History & Observations

Time (CDT) Temp. Windchill Dew Point Humidity Pressure Visibility Wind Dir Wind Speed Gust Speed Precip Events Conditions
12:15 AM 46.4 °F - 42.8 °F 87% 30.15 in 10.0 mi Calm Calm - N/A   Clear
12:35 AM 46.4 °F - 42.8 °F 87% 30.15 in 10.0 mi Calm Calm - N/A   Clear
1:15 AM 46.4 °F - 42.8 °F 87% 30.15 in 10.0 mi Calm Calm - N/A   Clear
1:35 AM 44.6 °F - 41.0 °F 87% 30.15 in 10.0 mi Calm Calm - N/A   Clear
1:55 AM 44.6 °F - 41.0 °F 87% 30.15 in 10.0 mi Calm Calm - N/A   Clear
2:15 AM 44.6 °F - 39.2 °F 81% 30.14 in 10.0 mi Calm Calm - N/A   Clear
2:35 AM 44.6 °F - 41.0 °F 87% 30.14 in 10.0 mi Calm Calm - N/A   Clear
2:55 AM 42.8 °F 40.1 °F 39.2 °F 87% 30.13 in 10.0 mi West 4.6 mph - N/A   Clear
4:15 AM 42.8 °F 41.1 °F 37.4 °F 81% 30.13 in 10.0 mi West 3.5 mph - N/A   Clear
4:35 AM 41.0 °F - 37.4 °F 87% 30.14 in 10.0 mi Calm Calm - N/A   Clear
4:55 AM 42.8 °F - 39.2 °F 87% 30.14 in 10.0 mi Calm Calm - N/A   Clear
5:15 AM 41.0 °F - 37.4 °F 87% 30.15 in 10.0 mi Calm Calm - N/A   Clear
5:35 AM 41.0 °F - 37.4 °F 87% 30.15 in 10.0 mi Calm Calm - N/A   Clear
5:55 AM 41.0 °F - 37.4 °F 87% 30.16 in 10.0 mi Calm Calm - N/A   Clear
6:35 AM 41.0 °F - 37.4 °F 87% 30.16 in 10.0 mi Calm Calm - N/A   Clear
6:55 AM 41.0 °F - 37.4 °F 87% 30.16 in 10.0 mi Calm Calm - N/A   Clear
7:35 AM 42.8 °F - 39.2 °F 87% 30.16 in 10.0 mi Calm Calm - N/A   Clear
7:55 AM 44.6 °F - 42.8 °F 93% 30.17 in 10.0 mi Calm Calm - N/A   Clear
8:15 AM 48.2 °F - 42.8 °F 82% 30.18 in 10.0 mi Calm Calm - N/A   Clear
8:35 AM 50.0 °F - 44.6 °F 82% 30.18 in 10.0 mi Calm Calm - N/A   Clear
8:55 AM 51.8 °F - 44.6 °F 76% 30.18 in 10.0 mi Calm Calm - N/A   Clear
9:15 AM 53.6 °F - 46.4 °F 77% 30.18 in 10.0 mi Calm Calm - N/A   Clear
9:35 AM 57.2 °F - 46.4 °F 67% 30.19 in 10.0 mi Calm Calm - N/A   Clear
9:55 AM 57.2 °F - 48.2 °F 72% 30.19 in 10.0 mi Calm Calm - N/A   Clear
10:15 AM 60.8 °F - 48.2 °F 63% 30.19 in 10.0 mi Calm Calm - N/A   Clear
10:56 AM 66.2 °F - 48.2 °F 52% 30.18 in 10.0 mi Calm Calm - N/A   Clear
11:15 AM 68.0 °F - 48.2 °F 49% 30.17 in 10.0 mi Calm Calm - N/A   Clear
11:35 AM 69.8 °F - 50.0 °F 49% 30.16 in 10.0 mi Calm Calm - N/A   Clear
11:55 AM 71.6 °F - 48.2 °F 43% 30.16 in 10.0 mi Calm Calm - N/A   Clear
12:15 PM 73.4 °F - 50.0 °F 44% 30.14 in 10.0 mi Calm Calm - N/A   Clear
12:35 PM 75.2 °F - 51.8 °F 44% 30.13 in 10.0 mi Calm Calm - N/A   Clear
1:16 PM 78.8 °F - 53.6 °F 42% 30.10 in 10.0 mi SSE 3.5 mph - N/A   Clear
1:35 PM 78.8 °F - 51.8 °F 39% 30.09 in 10.0 mi SE 4.6 mph - N/A   Clear
2:15 PM 82.4 °F - 51.8 °F 35% 30.08 in 10.0 mi WSW 6.9 mph - N/A   Clear
2:35 PM 82.4 °F - 50.0 °F 32% 30.07 in 10.0 mi WSW 9.2 mph - N/A   Clear
2:55 PM 82.4 °F - 48.2 °F 30% 30.06 in 10.0 mi WSW 8.1 mph - N/A   Clear
3:15 PM 82.4 °F - 48.2 °F 30% 30.05 in 10.0 mi WSW 10.4 mph - N/A   Clear
3:35 PM 82.4 °F - 48.2 °F 30% 30.05 in 10.0 mi West 4.6 mph - N/A   Clear
3:55 PM 82.4 °F - 48.2 °F 30% 30.05 in 10.0 mi West 4.6 mph - N/A   Clear
4:15 PM 82.4 °F - 48.2 °F 30% 30.04 in 10.0 mi WSW 6.9 mph - N/A   Clear
4:35 PM 80.6 °F - 50.0 °F 34% 30.04 in 10.0 mi SW 6.9 mph - N/A   Clear
5:15 PM 78.8 °F - 50.0 °F 36% 30.03 in 10.0 mi SW 4.6 mph - N/A   Clear
5:35 PM 73.4 °F - 51.8 °F 47% 30.03 in 10.0 mi SW 3.5 mph - N/A   Clear
5:55 PM 69.8 °F - 51.8 °F 53% 30.03 in 10.0 mi SSW 3.5 mph - N/A   Clear
6:35 PM 64.4 °F - 51.8 °F 64% 30.03 in 10.0 mi SW 3.5 mph - N/A   Clear
6:55 PM 60.8 °F - 53.6 °F 77% 30.03 in 10.0 mi WSW 4.6 mph - N/A   Clear
7:15 PM 59.0 °F - 51.8 °F 77% 30.03 in 10.0 mi WSW 3.5 mph - N/A   Clear
7:35 PM 59.0 °F - 51.8 °F 77% 30.03 in 10.0 mi WSW 3.5 mph - N/A   Clear
7:55 PM 57.2 °F - 51.8 °F 82% 30.03 in 10.0 mi Calm Calm - N/A   Clear
8:15 PM 57.2 °F - 51.8 °F 82% 30.04 in 10.0 mi Calm Calm - N/A   Clear
8:35 PM 55.4 °F - 50.0 °F 82% 30.04 in 10.0 mi Calm Calm - N/A   Clear
8:55 PM 55.4 °F - 51.8 °F 88% 30.04 in 10.0 mi Calm Calm - N/A   Clear
9:15 PM 55.4 °F - 48.2 °F 77% 30.04 in 10.0 mi Calm Calm - N/A   Clear
9:35 PM 53.6 °F - 48.2 °F 82% 30.04 in 10.0 mi Calm Calm - N/A   Clear
10:15 PM 53.6 °F - 50.0 °F 88% 30.05 in 10.0 mi Calm Calm - N/A   Clear
10:35 PM 53.6 °F - 48.2 °F 82% 30.05 in 10.0 mi Calm Calm - N/A   Clear
11:15 PM 51.8 °F - 48.2 °F 88% 30.04 in 10.0 mi Calm Calm - N/A   Clear
11:35 PM 51.8 °F - 46.4 °F 82% 30.04 in 10.0 mi Calm Calm - N/A   Clear